Temp
71 72 74 75 75 75 74 74 75 75 76 76 76 76 76 76 76 76 76 76 76 77 78 77 77 78 78 77 76 76 75 75 75 76 76 77 78 77 76 75 75 76 76
73 73 73 74 75 75 75 75 75 75 76 76 76 76 76 76 76 75 76 76 76 77 78 77 77 77 77 76 75 75 75 74 74 75 76 78 77 77 76 75 75 75 76
74 73 74 74 75 75 75 75 75 76 76 76 76 76 76 76 76 75 75 76 76 77 78 77 77 77 76 75 74 74 74 74 74 74 75 72 73 76 76 75 75 76 75
74 73 74 74 74 75 74 75 75 76 76 76 76 76 76 75 75 75 75 75 76 77 78 78 78 77 75 74 73 74 74 74 74 74 71 73 76 76 76 75 75 76 75
73 73 73 73 74 74 74 74 75 75 75 75 75 76 76 76 76 75 74 75 76 77 77 78 77 75 74 73 73 73 73 73 73 74 72 71 71 76 76 76 75 75 74
72 72 73 72 73 74 74 74 74 74 74 74 74 75 76 76 76 75 74 75 76 77 77 76 75 74 72 72 72 73 72 73 73 69 71 73 72 76 76 75 74 73 73
70 71 73 71 72 74 74 74 74 73 73 73 74 74 75 75 75 74 74 74 75 75 75 75 74 73 72 72 72 71 71 71 70 69 71 71 71 76 76 75 74 73 73
71 71 74 72 72 73 73 73 72 72 73 73 73 74 74 74 73 73 73 74 74 73 73 73 72 72 72 72 71 69 69 70 71 69 70 70 73 76 76 75 73 73 73
70 70 73 74 73 71 71 71 71 71 72 72 72 72 73 72 72 73 73 73 73 72 72 72 72 72 72 72 70 68 68 69 67 69 72 69 75 76 76 75 73 73 73
68 70 72 73 73 72 71 70 70 70 71 71 72 71 71 71 72 72 72 72 72 72 72 72 71 71 71 71 69 68 68 69 67 68 68 69 74 76 76 75 74 73 73
68 68 70 72 73 73 72 71 70 71 70 70 71 70 69 69 70 71 70 71 72 70 71 71 71 70 70 70 69 69 68 66 66 67 67 71 75 77 75 74 73 72 72
66 67 69 71 73 74 74 71 70 71 71 70 70 70 69 68 68 70 70 70 70 69 70 70 70 69 68 65 64 67 64 66 66 66 67 70 74 77 76 74 72 72 71
70 68 68 69 71 73 73 73 72 71 71 70 69 69 68 68 68 68 67 68 67 69 66 67 66 65 66 65 64 64 65 65 65 66 68 70 73 75 74 73 72 72 71
68 69 68 68 70 72 72 73 72 72 72 71 71 69 68 67 67 68 67 68 66 65 64 64 63 64 64 65 65 64 64 64 64 65 67 68 71 74 74 73 72 72 71
68 70 68 69 69 70 71 73 73 73 72 72 71 70 69 67 67 67 65 67 65 63 63 62 62 62 63 63 63 63 63 63 64 64 65 66 68 72 73 73 72 71 70
72 71 69 69 69 70 70 70 72 72 73 72 71 70 70 69 67 67 66 66 65 64 63 62 61 61 61 62 61 62 62 64 64 62 63 64 66 68 70 71 70 69 68
74 73 69 69 70 69 70 68 70 72 71 70 70 69 69 68 67 67 66 66 65 64 63 62 61 61 60 61 60 60 61 63 63 63 63 64 64 64 66 67 68 68 67
77 72 71 72 69 69 70 68 69 68 68 68 68 68 68 68 67 67 66 66 66 65 64 63 61 59 59 58 57 59 60 61 61 61 61 62 63 63 63 65 65 66 66
74 73 70 70 69 69 69 69 69 68 67 68 67 68 68 68 68 67 67 67 66 65 64 64 60 60 57 59 60 59 59 59 60 61 59 59 59 58 60 63 63 64 65
69 72 71 70 69 69 68 68 66 66 67 67 67 68 68 68 68 67 67 66 65 65 64 63 62 60 60 58 62 59 58 59 59 58 58 59 58 58 56 57 57 60 62
65 69 70 68 68 69 68 66 66 65 65 66 67 67 67 68 68 67 66 65 65 65 64 63 59 58 55 56 55 55 56 57 57 57 57 57 56 56 55 54 54 54 59
62 67 68 69 68 70 69 68 65 64 61 61 60 61 64 67 67 67 66 64 64 61 59 60 59 55 55 57 55 54 51 52 53 55 54 53 53 53 53 54 53 54 53
61 63 66 67 68 69 67 61 60 60 59 58 58 58 58 60 63 63 63 63 61 61 59 58 58 59 54 55 58 55 50 50 49 51 52 51 50 51 51 52 52 52 51
60 62 63 64 64 62 62 63 62 62 61 59 58 56 55 56 57 57 58 59 59 59 57 57 56 58 57 54 53 54 54 52 48 45 50 49 50 50 49 49 47 48 49
60 61 61 61 61 60 61 62 61 58 56 55 55 54 54 54 55 54 56 58 57 57 56 56 56 57 57 55 54 51 52 51 51 48 45 46 48 49 48 47 45 46 47
59 60 61 61 60 59 59 59 59 58 55 54 53 53 52 52 51 52 53 53 54 54 55 55 56 55 55 55 54 53 52 50 48 48 46 46 45 45 46 45 45 45 45
MSLP
1010.64 1010.73 1011.09 1011.31 1011.42 1011.61 1011.63 1011.82 1012.26 1012.46 1012.80 1013.16 1013.42 1013.62 1013.89 1014.30 1014.63 1014.86 1015.04 1015.21 1015.33 1015.49 1015.73 1015.92 1016.10 1016.34 1016.50 1016.62 1016.76 1016.91 1017.13 1017.32 1017.49 1017.63 1017.70 1017.85 1017.98 1018.23 1018.31 1018.32 1018.34 1018.39 1018.49
1009.46 1010.33 1010.78 1011.22 1011.40 1011.77 1012.00 1012.11 1012.43 1012.70 1012.92 1013.36 1013.67 1014.08 1014.19 1014.63 1014.91 1014.97 1015.09 1015.33 1015.42 1015.53 1015.74 1016.06 1016.22 1016.45 1016.77 1017.02 1017.14 1017.26 1017.48 1017.70 1017.84 1017.90 1017.93 1018.00 1018.18 1018.39 1018.60 1018.73 1018.80 1018.90 1018.97
1009.38 1009.95 1010.54 1010.98 1011.31 1011.69 1012.18 1012.46 1012.66 1012.96 1013.16 1013.50 1013.78 1014.17 1014.54 1014.72 1015.13 1015.35 1015.36 1015.53 1015.74 1015.80 1015.91 1016.10 1016.39 1016.63 1016.96 1017.26 1017.45 1017.65 1017.73 1017.96 1018.17 1018.27 1018.28 1018.30 1018.48 1018.62 1018.80 1018.89 1018.93 1019.04 1019.29
1009.35 1009.90 1010.36 1010.78 1011.19 1011.65 1012.17 1012.65 1013.03 1013.24 1013.45 1013.60 1013.94 1014.22 1014.57 1014.83 1015.12 1015.52 1015.76 1015.72 1015.93 1016.18 1016.27 1016.38 1016.47 1016.71 1017.04 1017.40 1017.72 1017.87 1017.97 1018.10 1018.20 1018.38 1018.57 1018.67 1018.75 1018.93 1019.02 1019.09 1019.23 1019.36 1019.53
1009.83 1010.23 1010.59 1010.91 1011.22 1011.69 1012.11 1012.68 1013.09 1013.34 1013.74 1013.81 1014.08 1014.36 1014.74 1015.14 1015.39 1015.78 1016.11 1016.27 1016.36 1016.52 1016.66 1016.86 1017.07 1017.21 1017.39 1017.51 1017.68 1017.95 1018.01 1018.11 1018.19 1018.29 1018.51 1018.79 1018.99 1019.14 1019.16 1019.23 1019.39 1019.57 1019.70
1010.04 1010.36 1010.87 1011.19 1011.41 1011.76 1012.17 1012.56 1013.05 1013.40 1013.81 1014.05 1014.28 1014.59 1014.89 1015.28 1015.68 1015.99 1016.38 1016.64 1016.73 1017.02 1017.15 1017.36 1017.64 1017.90 1018.01 1018.14 1018.17 1018.16 1018.29 1018.32 1018.31 1018.39 1018.48 1018.66 1018.94 1019.23 1019.46 1019.51 1019.65 1019.89 1020.05
1010.24 1010.63 1011.07 1011.42 1011.71 1011.89 1012.35 1012.72 1013.17 1013.67 1013.91 1014.31 1014.47 1014.76 1015.07 1015.31 1015.72 1015.97 1016.28 1016.59 1016.84 1017.11 1017.40 1017.65 1017.87 1018.20 1018.45 1018.63 1018.70 1018.73 1018.69 1018.51 1018.52 1018.57 1018.41 1018.58 1018.98 1019.19 1019.56 1019.69 1019.55 1019.83 1020.11
1009.95 1010.50 1011.13 1011.65 1011.94 1012.27 1012.56 1012.86 1013.23 1013.65 1014.03 1014.23 1014.69 1014.89 1015.12 1015.44 1015.80 1016.16 1016.42 1016.82 1017.01 1017.05 1017.31 1017.57 1017.88 1018.26 1018.59 1018.77 1018.88 1019.00 1019.01 1018.87 1018.66 1018.60 1018.51 1018.61 1018.90 1019.17 1019.48 1019.84 1019.79 1019.89 1020.10
1010.24 1010.49 1010.97 1011.66 1012.18 1012.40 1012.72 1013.12 1013.46 1013.71 1014.06 1014.34 1014.69 1015.00 1015.23 1015.48 1015.80 1016.10 1016.35 1016.72 1017.06 1017.41 1017.48 1017.60 1017.78 1017.93 1018.29 1018.67 1018.90 1019.03 1018.96 1018.80 1018.71 1018.64 1018.70 1018.87 1018.85 1019.11 1019.53 1020.06 1020.17 1020.23 1020.39
1010.66 1010.81 1010.97 1011.34 1011.99 1012.47 1012.83 1013.05 1013.52 1013.81 1014.09 1014.39 1014.70 1015.06 1015.29 1015.60 1015.82 1016.17 1016.40 1016.70 1017.10 1017.30 1017.59 1017.74 1017.90 1017.92 1018.00 1018.41 1018.62 1018.73 1018.79 1018.64 1018.61 1018.63 1018.75 1018.95 1019.08 1019.25 1019.60 1020.04 1020.29 1020.33 1020.44
1011.06 1011.14 1011.21 1011.30 1011.59 1012.20 1012.65 1013.10 1013.46 1013.81 1014.08 1014.41 1014.70 1015.13 1015.44 1015.76 1016.04 1016.20 1016.46 1016.69 1016.97 1017.40 1017.56 1017.85 1018.05 1018.14 1018.22 1018.46 1018.63 1018.66 1018.71 1018.80 1018.82 1018.88 1018.88 1018.86 1019.00 1019.26 1019.67 1020.01 1020.26 1020.49 1020.71
1010.81 1010.88 1010.98 1011.10 1011.23 1011.76 1012.29 1012.87 1013.37 1013.70 1014.05 1014.43 1014.82 1015.20 1015.52 1015.75 1016.12 1016.41 1016.70 1016.83 1017.12 1017.44 1017.75 1017.94 1018.16 1018.27 1018.42 1018.77 1018.84 1018.76 1018.82 1018.97 1019.10 1019.09 1019.08 1019.13 1019.12 1019.29 1019.55 1019.97 1020.47 1020.67 1021.07
1009.63 1010.48 1010.73 1010.98 1010.94 1011.23 1011.63 1012.25 1012.87 1013.46 1013.94 1014.34 1014.66 1015.05 1015.46 1015.87 1016.05 1016.41 1016.73 1017.01 1017.19 1017.37 1017.83 1018.02 1018.16 1018.28 1018.45 1018.71 1018.94 1018.95 1019.08 1019.19 1019.25 1019.27 1019.20 1019.17 1019.28 1019.56 1020.03 1020.21 1020.43 1020.69 1021.00
1009.72 1009.78 1010.46 1010.80 1010.98 1011.30 1011.52 1011.82 1012.25 1012.72 1013.32 1013.82 1014.26 1014.72 1015.27 1015.76 1016.31 1016.49 1016.71 1016.85 1017.26 1017.37 1017.74 1018.21 1018.40 1018.53 1018.62 1018.81 1019.05 1019.10 1019.33 1019.41 1019.45 1019.46 1019.51 1019.48 1019.51 1019.76 1020.27 1020.65 1020.85 1020.93 1021.24
1009.28 1009.53 1009.73 1010.22 1010.51 1010.89 1011.40 1011.61 1012.01 1012.42 1012.82 1013.20 1013.79 1014.35 1014.80 1015.41 1015.77 1016.10 1016.51 1016.70 1016.88 1017.32 1017.45 1017.98 1018.37 1018.63 1018.87 1018.95 1019.09 1019.23 1019.44 1019.70 1019.70 1019.67 1019.61 1019.63 1019.68 1019.88 1020.31 1020.76 1021.34 1021.68 1021.91
1008.27 1008.55 1009.10 1009.48 1009.91 1010.34 1010.74 1011.15 1011.60 1012.07 1012.56 1012.98 1013.28 1013.72 1014.37 1014.80 1015.24 1016.00 1016.02 1016.29 1016.41 1016.90 1017.47 1017.72 1018.10 1018.50 1018.82 1019.02 1019.36 1019.62 1019.74 1019.87 1019.98 1020.03 1019.86 1020.01 1020.08 1020.19 1020.67 1021.01 1021.65 1022.20 1022.56
1006.97 1007.41 1008.09 1008.68 1009.37 1009.72 1010.26 1011.01 1011.35 1011.68 1012.32 1012.79 1013.12 1013.48 1013.87 1014.29 1014.80 1014.84 1015.81 1016.13 1016.59 1016.61 1016.60 1017.28 1017.79 1018.29 1018.66 1018.95 1019.58 1019.94 1020.25 1020.40 1020.58 1020.56 1020.75 1020.63 1020.68 1020.85 1021.15 1021.33 1021.83 1022.53 1023.18
1006.26 1006.90 1007.36 1008.19 1008.79 1009.32 1009.77 1010.40 1011.19 1011.59 1011.99 1012.51 1012.97 1013.36 1013.65 1013.95 1014.28 1014.67 1015.10 1015.45 1015.57 1016.27 1016.75 1016.99 1017.57 1018.14 1018.31 1018.78 1019.29 1019.88 1020.32 1020.72 1021.01 1021.11 1021.23 1021.32 1021.50 1021.60 1021.93 1022.18 1022.27 1022.41 1023.48
1005.97 1006.23 1006.90 1007.57 1008.24 1008.72 1009.55 1010.11 1010.71 1011.07 1011.57 1011.88 1012.42 1012.80 1013.10 1013.34 1013.68 1014.07 1014.52 1014.82 1015.14 1015.64 1016.16 1016.93 1017.32 1017.90 1018.39 1018.62 1019.10 1019.82 1020.30 1020.70 1020.98 1021.51 1021.66 1021.64 1021.77 1022.04 1022.18 1022.66 1022.31 1022.74 1023.17
1005.42 1005.89 1006.58 1007.19 1007.86 1008.64 1009.34 1010.05 1010.72 1011.19 1011.44 1011.54 1011.90 1012.35 1012.82 1013.02 1013.32 1013.74 1014.19 1014.64 1014.99 1015.63 1015.96 1016.58 1017.09 1017.62 1017.99 1018.50 1019.48 1019.83 1020.33 1020.86 1020.97 1021.46 1021.91 1022.13 1022.39 1022.57 1022.92 1023.29 1023.48 1022.95 1023.02
1004.92 1005.34 1005.99 1006.83 1007.47 1008.20 1009.02 1009.77 1010.52 1010.74 1011.30 1011.63 1011.80 1012.00 1012.37 1012.70 1013.15 1013.48 1013.94 1014.26 1014.40 1015.09 1015.51 1016.20 1016.77 1017.59 1018.57 1018.73 1019.67 1020.55 1020.85 1021.31 1021.59 1021.64 1021.86 1022.61 1022.78 1022.65 1023.40 1023.77 1024.09 1023.83 1024.19
1004.80 1005.16 1006.02 1006.55 1007.18 1007.64 1008.25 1008.98 1009.85 1010.41 1011.23 1011.56 1011.80 1012.02 1012.21 1012.34 1012.67 1013.03 1013.42 1013.90 1014.39 1014.88 1015.33 1015.91 1016.34 1017.31 1018.24 1018.43 1019.11 1020.13 1021.04 1021.76 1021.81 1022.07 1022.08 1022.00 1022.69 1023.00 1023.21 1023.59 1023.95 1024.19 1024.50
1005.93 1005.92 1006.24 1006.49 1006.99 1007.60 1008.25 1009.27 1010.17 1010.85 1011.50 1011.92 1012.05 1012.29 1012.54 1012.56 1012.66 1012.68 1013.06 1013.49 1013.85 1014.30 1014.79 1015.20 1015.61 1016.15 1017.26 1018.26 1018.11 1018.59 1020.34 1020.73 1021.97 1022.47 1022.58 1022.81 1022.90 1022.98 1023.39 1024.05 1024.10 1024.83 1024.86
1006.87 1006.72 1006.98 1007.24 1007.71 1008.14 1008.57 1009.14 1009.79 1010.09 1010.87 1011.25 1011.63 1012.23 1012.63 1012.86 1013.02 1012.97 1013.04 1013.30 1013.55 1013.97 1014.43 1014.78 1015.21 1015.66 1016.41 1017.33 1018.29 1018.33 1018.42 1018.46 1020.84 1022.50 1023.05 1022.95 1023.23 1023.65 1024.69 1024.87 1025.20 1025.61 1025.86
1007.13 1007.39 1007.63 1007.79 1008.30 1008.77 1009.11 1009.41 1009.91 1010.41 1010.99 1011.57 1011.99 1012.43 1012.65 1013.05 1013.25 1013.54 1013.55 1013.45 1013.57 1013.75 1014.19 1014.33 1015.08 1015.64 1016.01 1016.61 1017.53 1018.00 1018.91 1019.16 1019.30 1020.91 1021.99 1023.06 1023.39 1024.38 1024.64 1025.35 1025.70 1026.14 1026.35
1007.88 1008.02 1008.09 1008.48 1009.07 1009.32 1009.60 1009.96 1010.33 1010.77 1011.34 1011.94 1012.40 1012.72 1013.08 1013.42 1013.41 1013.39 1013.67 1013.83 1013.96 1013.85 1014.06 1014.10 1014.66 1015.03 1015.56 1015.98 1016.88 1017.55 1017.97 1018.38 1019.52 1019.59 1020.96 1021.88 1023.06 1024.22 1024.88 1025.61 1026.14 1026.27 1026.66
Wind_Speed
6 8 11 10 10 10 13 16 16 19 20 19 19 19 19 18 17 17 16 16 16 16 16 16 15 15 15 16 16 15 14 13 12 12 13 14 14 15 15 12 11 10 14
14 12 14 12 12 12 12 14 15 17 19 19 19 18 19 18 16 16 16 15 15 17 17 16 16 16 16 15 13 13 13 11 10 11 11 15 15 14 14 12 12 11 13
15 13 14 15 15 14 13 13 15 16 17 18 18 18 17 17 15 14 14 14 14 15 17 17 17 17 16 14 12 12 12 11 11 10 11 5 6 14 14 12 10 13 13
14 13 13 17 16 15 15 14 14 15 16 17 16 16 16 15 15 13 12 13 13 13 15 16 17 17 16 13 11 10 11 10 9 9 5 5 7 12 13 13 12 12 14
10 10 11 16 17 16 16 14 13 14 14 16 16 16 15 15 15 14 11 10 12 12 12 12 13 13 12 12 12 10 9 7 6 4 4 5 4 9 13 14 12 11 11
10 8 15 14 15 16 16 15 14 14 13 14 15 15 15 15 14 13 10 9 10 10 10 9 8 8 9 10 9 8 6 4 1 0 2 6 6 10 11 13 10 10 9
9 7 13 13 14 16 16 15 14 13 13 12 13 14 14 14 13 13 12 11 10 10 9 8 7 7 8 9 9 8 5 2 1 3 2 7 6 11 11 11 14 12 10
13 10 12 12 12 12 14 13 13 13 13 13 12 13 14 13 13 12 11 10 10 11 11 9 7 6 7 8 8 7 3 5 4 3 4 7 11 12 13 11 11 12 11
8 11 12 12 10 11 12 11 11 12 12 12 12 12 12 12 12 12 12 11 10 9 10 9 8 7 5 8 6 4 4 3 1 2 4 3 13 12 13 10 10 10 10
5 7 12 12 10 9 8 12 12 11 12 12 12 11 11 11 12 11 11 11 10 10 9 8 7 5 2 4 7 4 4 5 4 4 3 3 9 12 12 12 11 10 11
4 6 10 13 13 11 10 9 12 12 11 10 10 10 9 5 6 8 8 10 11 9 9 8 6 3 1 5 5 3 5 2 3 2 2 7 9 9 11 11 10 10 11
10 9 10 13 14 14 10 9 8 8 7 7 7 7 5 5 5 5 5 9 8 8 8 7 5 3 0 3 2 3 2 3 3 2 1 5 7 9 10 10 12 14 14
14 9 11 11 12 14 11 9 7 5 5 5 7 7 5 4 4 3 3 3 3 7 3 4 3 2 2 2 2 2 4 3 2 2 4 9 11 12 12 15 14 15 15
11 14 11 11 12 12 7 9 9 8 8 7 8 9 6 4 4 5 3 5 4 3 5 3 2 2 2 1 2 2 4 3 2 2 3 8 10 14 12 12 13 14 16
11 14 14 13 13 12 11 9 10 11 10 9 9 10 8 7 7 6 4 5 4 4 4 4 4 3 2 0 2 5 5 4 4 2 2 7 9 11 12 14 15 16 16
14 16 14 16 14 14 12 12 10 9 11 11 10 9 10 7 7 6 6 7 6 5 3 4 5 4 3 2 4 4 4 4 3 3 3 4 10 15 17 19 18 17 17
17 15 17 17 15 15 14 10 9 10 9 9 8 10 11 10 9 10 7 6 5 5 8 5 5 4 4 3 5 4 4 4 3 5 5 5 9 14 17 19 19 17 15
15 16 15 14 16 15 14 10 8 8 8 7 6 7 11 10 10 9 8 7 7 5 5 5 4 3 5 4 4 4 5 4 5 6 5 5 6 7 11 16 17 19 15
13 13 15 15 16 16 11 9 9 10 8 7 7 8 11 12 12 10 8 7 7 6 6 6 3 4 4 6 7 6 5 5 6 5 6 8 8 6 6 12 15 17 18
12 12 11 12 13 13 8 7 4 5 6 6 7 8 10 10 11 10 7 6 7 6 6 6 5 3 2 6 5 5 5 4 5 5 6 6 7 8 7 7 5 8 16
9 12 14 13 13 12 9 9 7 8 6 5 6 7 8 10 9 10 7 7 8 8 8 7 4 5 2 4 6 5 4 2 3 5 6 6 7 7 7 6 4 5 5
7 9 10 12 14 13 10 7 3 4 2 2 3 2 4 8 8 9 9 8 8 5 7 8 7 3 2 5 4 4 3 1 2 3 3 6 7 5 7 5 7 8 6
6 4 6 9 11 11 7 7 5 5 3 2 2 2 1 3 5 7 7 7 8 8 8 10 10 11 6 3 9 6 3 3 3 2 3 3 4 5 5 5 7 6 7
5 5 5 6 6 5 8 7 8 5 5 2 3 3 3 3 1 3 5 5 7 6 7 7 6 7 6 9 1 2 1 7 5 4 1 5 4 6 5 5 6 7 6
7 7 6 8 7 6 5 3 3 3 3 3 3 5 3 1 3 4 2 3 6 5 6 9 8 8 6 6 6 4 1 3 4 5 5 4 5 3 5 4 5 5 6
5 6 7 9 7 6 6 6 6 6 5 4 3 3 2 1 2 4 4 3 1 4 8 8 7 9 8 8 6 6 4 4 4 4 3 6 7 4 5 5 4 5 5
Wind_Direction
201 162 158 145 128 120 115 115 115 115 118 118 115 115 117 117 117 116 115 116 114 108 104 100 95 90 90 93 96 96 94 93 95 98 103 105 99 97 93 84 79 83 85
148 160 156 151 138 131 125 122 121 121 122 122 122 123 123 123 125 125 123 120 116 114 112 108 104 100 97 94 90 93 94 92 92 89 87 113 103 104 98 89 85 89 87
153 156 159 155 148 142 139 132 128 127 123 122 123 123 123 124 122 120 116 114 114 118 119 117 113 110 108 104 99 99 100 98 89 81 82 75 103 111 110 105 99 101 96
152 156 162 159 151 150 144 140 136 133 130 127 126 125 126 125 123 120 119 121 121 121 123 126 125 123 120 113 105 103 102 106 107 105 94 88 110 121 119 111 104 103 104
147 153 161 159 155 154 149 145 144 141 138 134 133 132 130 129 128 125 121 120 122 127 127 125 121 120 118 117 116 116 117 122 121 120 125 128 123 138 133 126 118 114 113
142 146 162 162 160 157 154 151 151 149 145 143 140 138 136 134 132 127 122 125 124 123 117 107 95 87 94 93 94 98 88 86 78 319 178 159 145 148 143 137 122 116 103
140 138 163 164 164 161 157 156 153 152 150 149 146 143 142 139 140 137 138 139 132 121 111 101 89 78 71 69 61 52 36 4 28 308 239 150 142 150 154 145 134 129 120
149 145 162 166 168 160 159 157 156 157 158 153 152 149 148 146 143 144 144 143 139 135 131 126 115 96 84 78 77 75 45 351 348 354 135 131 156 163 161 155 139 135 130
146 146 158 172 170 160 156 154 158 161 163 159 157 156 154 151 152 155 151 150 148 145 141 140 141 136 127 107 94 74 39 37 145 95 142 147 166 161 158 154 142 132 130
144 157 162 167 171 169 169 157 164 164 165 164 162 162 159 160 161 162 158 158 156 153 150 148 153 149 150 97 102 102 58 56 102 119 132 161 169 158 151 153 150 141 132
161 175 170 170 173 173 174 171 164 168 168 167 163 164 157 160 171 168 167 167 162 163 158 158 164 168 229 64 91 85 80 111 85 80 117 165 171 164 155 149 152 124 114
191 191 185 177 172 176 178 174 172 177 178 172 170 169 171 160 166 163 169 172 164 163 169 163 169 176 29 81 66 65 110 112 91 98 122 180 180 167 161 141 118 117 116
192 186 188 182 177 174 176 174 179 180 175 176 171 169 170 166 163 152 152 168 161 167 166 164 170 180 207 107 101 88 114 105 106 96 91 99 113 119 130 134 136 132 120
183 197 180 183 178 183 174 182 180 181 181 184 184 175 166 159 170 178 171 173 171 170 167 174 177 215 244 193 160 200 141 130 126 112 109 114 125 141 144 141 133 126 126
196 199 189 182 180 179 176 181 188 192 191 186 182 182 169 177 180 173 179 185 174 178 172 177 181 187 234 267 111 137 133 124 123 120 117 118 123 125 133 121 111 104 104
203 201 187 191 185 177 180 179 185 190 197 195 189 184 180 179 173 193 191 196 187 176 180 174 174 178 192 148 121 117 116 127 120 103 94 90 110 116 115 110 104 99 91
208 194 192 189 183 183 183 184 183 188 188 194 192 182 181 183 188 178 188 183 207 201 170 167 170 156 158 136 119 110 107 97 79 80 68 89 93 93 106 108 107 97 90
205 195 186 185 189 183 184 174 182 181 181 186 184 182 189 192 186 186 188 199 191 178 198 191 165 169 155 155 139 137 122 115 102 97 93 97 98 100 96 111 110 101 97
217 195 188 183 188 184 177 170 180 179 180 179 177 185 194 197 195 194 198 199 183 186 182 189 166 163 169 171 155 139 134 137 132 114 112 112 107 105 108 108 112 110 114
188 191 190 183 180 174 163 166 149 170 187 181 186 194 198 207 203 197 202 188 182 198 191 179 182 181 191 147 137 119 120 137 136 136 128 109 106 105 93 81 58 107 120
179 175 180 170 170 167 168 169 179 189 180 188 194 189 192 205 207 203 200 189 183 195 197 200 137 166 94 124 100 69 61 97 136 130 135 125 126 123 95 97 102 77 101
142 163 164 169 169 181 176 170 157 146 107 125 132 160 201 201 199 203 204 200 193 167 155 165 166 155 120 172 122 92 171 99 94 131 122 148 139 120 113 132 122 115 98
67 118 163 165 169 176 149 115 84 84 83 120 174 152 177 210 208 199 214 192 178 171 179 178 176 180 163 207 175 144 165 173 115 17 102 101 128 137 118 145 114 103 105
58 48 101 103 117 107 136 147 166 187 168 169 127 105 93 50 293 215 179 178 174 182 179 179 167 170 149 171 120 36 233 131 164 144 40 107 99 68 77 68 65 68 71
43 57 76 82 77 100 94 138 153 114 82 90 100 125 138 116 41 26 333 214 182 183 185 166 166 169 159 168 174 147 346 36 117 138 145 155 83 128 109 106 106 101 96
56 73 79 87 82 85 91 92 105 135 126 125 128 153 158 80 98 112 102 79 287 156 168 167 158 155 169 148 162 162 167 144 196 143 133 142 137 116 119 116 121 134 137